Weather History for Detroit Lakes, MN

Change the Weather History Date:

Monday, November 5, 2012

  Actual Average Record
Temperature  
Mean Temperature 35 °F -  
Max Temperature 37 °F 41 °F 72 °F (1975)
Min Temperature 33 °F 25 °F -16 °F (1951)
Degree Days  
Heating Degree Days 30    
Moisture  
Dew Point 32 °F    
Average Humidity 87    
Maximum Humidity 100    
Minimum Humidity 75    
Precipitation  
Precipitation 0.06 in - - ()
Sea Level Pressure  
Sea Level Pressure 30.07 in    
Wind  
Wind Speed 4 mph (SSE)    
Max Wind Speed 17 mph    
Max Gust Speed 21 mph    
Visibility 9 miles    
Events Rain    
Averages and records for this station are not official NWS values.
T = Trace of Precipitation, MM = Missing Value Source: NWS Daily Summary

Daily Weather History Graph

Daily Weather History Graph

Search for Another Location

Airport:

Trip Planner

Search our weather history database for the weather conditions in past years. The results will help you decide how hot, cold, wet, or windy it might be!

Date:

Astronomy

Nov. 05, 2012 Rise Set
Actual Time 7:12 AM CST 5:01 PM CST
Civil Twilight 6:40 AM CST 5:33 PM CST
Nautical Twilight 6:04 AM CST 6:09 PM CST
Astronomical Twilight 5:28 AM CST 6:44 PM CST
Moon 10:40 PM CST (11/5) 12:33 PM CST (11/5)
Length of Visible Light 10h 52m
Length of Day
9h 48m
Waning Gibbous, 62% of the Moon is Illuminated
Nov 5
Waning Gibbous
Nov 6
Last Quarter
Nov 13
New
Nov 20
First Quarter
Nov 28
Full

Hourly Weather History & Observations

Time (CST) Temp. Windchill Dew Point Humidity Pressure Visibility Wind Dir Wind Speed Gust Speed Precip Events Conditions
12:13 AM 35.6 °F - 30.2 °F 81% 30.20 in 10.0 mi Calm Calm - N/A   Mostly Cloudy
12:33 AM 33.8 °F - 30.2 °F 87% 30.21 in 10.0 mi Calm Calm - N/A   Mostly Cloudy
12:52 AM 33.8 °F - 30.2 °F 87% 30.21 in 10.0 mi Calm Calm - N/A   Overcast
1:13 AM 33.8 °F - 30.2 °F 87% 30.21 in 10.0 mi Calm Calm - N/A   Overcast
1:33 AM 33.8 °F - 30.2 °F 87% 30.21 in 10.0 mi Calm Calm - N/A   Overcast
1:52 AM 33.8 °F 30.8 °F 30.2 °F 87% 30.21 in 10.0 mi ENE 3.5 mph - N/A   Mostly Cloudy
2:13 AM 33.8 °F 30.8 °F 30.2 °F 87% 30.21 in 10.0 mi ENE 3.5 mph - N/A   Mostly Cloudy
2:32 AM 33.8 °F 30.8 °F 30.2 °F 87% 30.20 in 10.0 mi East 3.5 mph - N/A   Overcast
2:53 AM 33.8 °F - 30.2 °F 87% 30.20 in 10.0 mi Calm Calm - N/A   Overcast
3:12 AM 33.8 °F - 30.2 °F 87% 30.21 in 10.0 mi Calm Calm - N/A   Overcast
3:33 AM 33.8 °F - 30.2 °F 87% 30.21 in 10.0 mi Calm Calm - N/A   Overcast
3:52 AM 33.8 °F 30.8 °F 30.2 °F 87% 30.21 in 10.0 mi ENE 3.5 mph - N/A   Overcast
4:13 AM 33.8 °F 30.8 °F 30.2 °F 87% 30.21 in 10.0 mi East 3.5 mph - N/A   Overcast
4:33 AM 33.8 °F 29.6 °F 30.2 °F 87% 30.21 in 10.0 mi East 4.6 mph - N/A   Overcast
4:52 AM 33.8 °F - 30.2 °F 87% 30.21 in 10.0 mi Calm Calm - N/A   Overcast
5:13 AM 33.8 °F 30.8 °F 30.2 °F 87% 30.20 in 10.0 mi East 3.5 mph - N/A   Overcast
5:33 AM 33.8 °F - 30.2 °F 87% 30.20 in 10.0 mi Calm Calm - N/A   Overcast
5:52 AM 33.8 °F - 30.2 °F 87% 30.20 in 10.0 mi Calm Calm - N/A   Overcast
6:13 AM 33.8 °F - 30.2 °F 87% 30.20 in 10.0 mi Calm Calm - N/A   Overcast
6:33 AM 33.8 °F - 30.2 °F 87% 30.19 in 10.0 mi Calm Calm - N/A   Mostly Cloudy
6:52 AM 33.8 °F - 30.2 °F 87% 30.19 in 10.0 mi Calm Calm - N/A   Overcast
7:13 AM 33.8 °F - 30.2 °F 87% 30.19 in 10.0 mi Calm Calm - N/A   Overcast
7:33 AM 33.8 °F 30.8 °F 30.2 °F 87% 30.18 in 10.0 mi ESE 3.5 mph - N/A   Overcast
7:52 AM 33.8 °F - 30.2 °F 87% 30.19 in 10.0 mi Calm Calm - N/A   Mostly Cloudy
8:13 AM 33.8 °F 29.6 °F 30.2 °F 87% 30.19 in 10.0 mi SE 4.6 mph - N/A   Mostly Cloudy
8:33 AM 33.8 °F 30.8 °F 30.2 °F 87% 30.18 in 10.0 mi SE 3.5 mph - N/A   Overcast
8:52 AM 33.8 °F 27.7 °F 30.2 °F 87% 30.18 in 10.0 mi SE 6.9 mph - N/A   Mostly Cloudy
9:13 AM 33.8 °F 27.7 °F 30.2 °F 87% 30.17 in 10.0 mi SE 6.9 mph - N/A   Mostly Cloudy
9:33 AM 33.8 °F 28.6 °F 30.2 °F 87% 30.17 in 10.0 mi SE 5.8 mph - N/A   Mostly Cloudy
9:52 AM 35.6 °F 30.7 °F 30.2 °F 81% 30.17 in 10.0 mi SSE 5.8 mph - N/A   Overcast
10:13 AM 35.6 °F 32.8 °F 30.2 °F 81% 30.17 in 10.0 mi SSE 3.5 mph - N/A   Overcast
10:32 AM 35.6 °F 31.7 °F 30.2 °F 81% 30.17 in 10.0 mi SE 4.6 mph - N/A   Overcast
10:53 AM 37.4 °F 33.8 °F 30.2 °F 75% 30.16 in 10.0 mi SE 4.6 mph - N/A   Overcast
11:13 AM 35.6 °F 32.8 °F 30.2 °F 81% 30.16 in 10.0 mi South 3.5 mph - N/A   Overcast
11:32 AM 35.6 °F - 32.0 °F 87% 30.16 in 10.0 mi Calm Calm - N/A   Overcast
11:53 AM 37.4 °F 33.8 °F 32.0 °F 81% 30.14 in 10.0 mi SSE 4.6 mph - N/A   Mostly Cloudy
12:13 PM 37.4 °F 33.8 °F 32.0 °F 81% 30.13 in 10.0 mi SSE 4.6 mph - N/A   Overcast
12:32 PM 37.4 °F 32.8 °F 32.0 °F 81% 30.11 in 10.0 mi SSE 5.8 mph - N/A   Overcast
12:52 PM 37.4 °F 30.8 °F 32.0 °F 81% 30.09 in 10.0 mi SE 9.2 mph - N/A   Overcast
1:13 PM 37.4 °F 31.4 °F 32.0 °F 81% 30.08 in 10.0 mi SSE 8.1 mph - N/A   Overcast
1:32 PM 37.4 °F 31.4 °F 32.0 °F 81% 30.07 in 10.0 mi SSE 8.1 mph - N/A   Overcast
1:52 PM 37.4 °F 30.8 °F 32.0 °F 81% 30.06 in 10.0 mi SSE 9.2 mph - N/A   Overcast
2:13 PM 37.4 °F 31.4 °F 32.0 °F 81% 30.05 in 10.0 mi SSE 8.1 mph - N/A   Overcast
2:32 PM 37.4 °F 29.8 °F 32.0 °F 81% 30.04 in 10.0 mi SSE 11.5 mph - N/A   Overcast
2:52 PM 37.4 °F 31.4 °F 32.0 °F 81% 30.04 in 10.0 mi South 8.1 mph - N/A   Overcast
3:13 PM 37.4 °F 31.4 °F 32.0 °F 81% 30.03 in 10.0 mi South 8.1 mph - N/A   Overcast
3:32 PM 37.4 °F 31.4 °F 32.0 °F 81% 30.03 in 10.0 mi South 8.1 mph - N/A   Overcast
3:53 PM 37.4 °F 31.4 °F 33.8 °F 87% 30.02 in 10.0 mi South 8.1 mph - N/A   Overcast
4:13 PM 37.4 °F 31.4 °F 33.8 °F 87% 30.01 in 10.0 mi South 8.1 mph - N/A   Overcast
4:32 PM 37.4 °F 29.8 °F 33.8 °F 87% 30.00 in 10.0 mi South 11.5 mph - N/A   Overcast
4:53 PM 37.4 °F 30.8 °F 33.8 °F 87% 30.00 in 10.0 mi South 9.2 mph - N/A   Overcast
5:13 PM 35.6 °F 29.2 °F 33.8 °F 93% 29.98 in 10.0 mi South 8.1 mph - N/A   Overcast
5:32 PM 37.4 °F 31.4 °F 33.8 °F 87% 29.98 in 10.0 mi South 8.1 mph - N/A   Overcast
5:53 PM 37.4 °F 30.3 °F 33.8 °F 87% 29.98 in 10.0 mi SSW 10.4 mph - N/A   Overcast
6:13 PM 37.4 °F 29.8 °F 33.8 °F 87% 29.96 in 10.0 mi SSW 11.5 mph - N/A   Overcast
6:32 PM 37.4 °F 29.8 °F 33.8 °F 87% 29.96 in 10.0 mi SSW 11.5 mph - N/A   Overcast
6:53 PM 35.6 °F 26.2 °F 33.8 °F 93% 29.95 in 10.0 mi South 15.0 mph 19.6 mph N/A   Overcast
7:13 PM 35.6 °F 27.5 °F 33.8 °F 93% 29.93 in 10.0 mi South 11.5 mph - N/A   Overcast
7:32 PM 35.6 °F 27.1 °F 33.8 °F 93% 29.90 in 7.0 mi South 12.7 mph - N/A   Overcast
7:53 PM 35.6 °F 27.1 °F 33.8 °F 93% 29.89 in 10.0 mi South 12.7 mph - N/A   Overcast
8:13 PM 35.6 °F 27.1 °F 33.8 °F 93% 29.88 in 10.0 mi South 12.7 mph - N/A   Overcast
8:32 PM 35.6 °F 27.1 °F 33.8 °F 93% 29.88 in 5.0 mi South 12.7 mph - N/A Rain Rain
8:53 PM 35.6 °F 27.1 °F 33.8 °F 93% 29.88 in 4.0 mi SSW 12.7 mph - 0.02 in Rain Light Rain
9:13 PM 33.8 °F 25.8 °F 33.8 °F 100% 29.87 in 3.0 mi South 10.4 mph - 0.01 in Rain Rain
9:32 PM 33.8 °F 25.8 °F 33.8 °F 100% 29.85 in 3.0 mi South 10.4 mph - 0.01 in Rain Light Rain
9:53 PM 35.6 °F 27.1 °F 35.6 °F 100% 29.84 in 4.0 mi South 12.7 mph 18.4 mph 0.01 in   Overcast
10:13 PM 35.6 °F 26.2 °F 33.8 °F 93% 29.83 in 4.0 mi SSW 15.0 mph 20.7 mph N/A Rain Light Rain
10:32 PM 35.6 °F 27.5 °F 33.8 °F 93% 29.81 in 5.0 mi SSW 11.5 mph - N/A Rain Light Rain
10:53 PM 35.6 °F 26.2 °F 33.8 °F 93% 29.80 in 4.0 mi SSW 15.0 mph 18.4 mph 0.01 in Rain Light Rain
11:13 PM 35.6 °F 25.5 °F 33.8 °F 93% 29.77 in 4.0 mi South 17.3 mph - N/A Rain Light Rain
11:32 PM 35.6 °F 28.0 °F 33.8 °F 93% 29.77 in 4.0 mi South 10.4 mph - 0.01 in Rain Light Rain
11:53 PM 35.6 °F 27.5 °F 33.8 °F 93% 29.77 in 3.0 mi SSW 11.5 mph - 0.02 in Rain Light Rain